Regional Weather Roundup
Issued by NWS

Home | Current Version | Previous Version | Text Only | Print | Product List | Glossary On
Versions: 1 2 3 4 5 6 7 8 9 10 11 12 13 14 15 16 17 18 19 20 21 22 23 24 25 26 27 28 29 30 31 32 33 34 35 36 37 38 39 40 41 42 43 44 45 46 47 48 49 50
000
ASUS43 KDTX 181901
RWRMI
MICHIGAN HOURLY REGIONAL WEATHER ROUNDUP
NATIONAL WEATHER SERVICE DETROIT/PONTIAC MI
200 PM EST SAT NOV 18 2017

NOTE: "FAIR" INDICATES FEW OR NO CLOUDS BELOW 12,000 FEET WITH NO
SIGNIFICANT WEATHER AND/OR OBSTRUCTION TO VISIBILITY.

MIZ047>049-052>055-059>063-066>070-074>076-081>083-182000-
SOUTHEAST LOWER MICHIGAN

CITY           SKY/WX    TMP DP  RH WIND       PRES   REMARKS
ADRIAN         HVY RAIN  45  44  97 E18       29.20F FOG
ALMA           LGT SNOW  40  39  99 N10       29.39F WCI  33
ANN ARBOR      HVY RAIN  45  45 100 NW5       29.32R FOG
BAD AXE        LGT RAIN  41  40  99 N6        29.37F
CARO           MIX PCPN  42  41  99 N9        29.36S
DETROIT CITY   RAIN      57  46  66 E6        29.32R
DETROIT        HVY RAIN  46  45  96 NE3       29.32R FOG
FLINT          RAIN      44  43  96 N6        29.37R FOG
GROSSE ILE     LGT SNOW  46  46  97 CALM      29.29F
HILLSDALE      CLOUDY    43  43 100 N12       29.26F
HOWELL         MIX PCPN  44  44 100 CALM      29.34R

CITY           SKY/WX    TMP DP  RH WIND       PRES   REMARKS
JACKSON        RAIN      45  42  89 N10       29.30F FOG
LAMBERTVILLE   HVY RAIN  51  49  93 CALM      29.29S
LANSING        LGT RAIN  42  41  96 N14       29.37S FOG
LAPEER         RAIN      44  43  98 CALM      29.35S
MASON          HVY RAIN  45  43  94 N6        29.34F
MONROE         MIX PCPN  48  46  93 N3        29.29F VSB 1
MT. CLEMENS    LGT RAIN  45  45 100 NE5       29.30S FOG
PONTIAC        RAIN      44  44 100 N5        29.33S FOG
PORT HOPE        N/A     42  40  92 N12       29.35F
PORT HURON     RAIN      45  43  93 NE3       29.33F VSB 1
TRI CITIES     RAIN      41  40  96 N14       29.40F FOG
MIDLAND        RAIN      40  39  95 N9        29.40F WCI  34
TROY           MIX PCPN  47  46  95 NE6       29.34R VSB 3/4
SAGINAW HB     MIX PCPN  41  39  93 N12       29.38S
$$
MIZ043>046-050>051-056>058-064>065-071>073-077>080-182000-
SOUTHWEST LOWER MICHIGAN

CITY           SKY/WX    TMP DP  RH WIND       PRES   REMARKS
BATTLE CREEK   LGT RAIN  43  42  97 N15       29.32F
BENTON HARBOR  LGT RAIN  43  39  86 N12G25    29.38S FOG
BIG RAPIDS     FLURRIES  36  34  92 N9        29.42S WCI  29
COLDWATER      RAIN      46  46 100 N10G20    29.27F
FREMONT        LGT RAIN  39  38  97 N15G23    29.43R WCI  30
HOLLAND        RAIN      40  37  89 N7G17     29.40S FOG
GRAND RAPIDS   RAIN      41  41 100 N13       29.38S FOG
IONIA          RAIN      40  40  97 N8        29.37S
KALAMAZOO      LGT RAIN  43  39  86 N21       29.35F
LUDINGTON      CLOUDY    40  38  93 N9        29.47R WCI  34
MARSHALL       RAIN      43  43  98 N7        29.31F
MOUNT PLEASANT MIX PCPN  39  37  91 N10       29.40F WCI  32
MUSKEGON       LGT RAIN  41  37  86 N9G22     29.44R
SOUTH HAVEN    LGT RAIN  42  40  91 N10G16    29.40S
$$
MIZ016>042-182000-
NORTHERN LOWER MICHIGAN

CITY           SKY/WX    TMP DP  RH WIND       PRES   REMARKS
ALPENA         LGT RAIN  38  37  97 N10       29.44F WCI  31
BEAVER ISLAND  DRIZZLE   40  37  87 N7G16     29.52F
BELLAIRE       CLOUDY    38  37  95 N5        29.49S WCI  35
CADILLAC       DRIZZLE   36  36  99 N7        29.42F WCI  30
CHARLEVOIX     CLOUDY    40  35  83 N10G16    29.52F WCI  34
FRANKFORT      CLOUDY    42  38  85 N7        29.50S
GAYLORD        CLOUDY    34  32  92 N6        29.44F WCI  29
GRAYLING       LGT RAIN  36  33  90 N8        29.45S WCI  29
HARBOR SPRINGS CLOUDY    38  35  87 N6        29.49S WCI  34
HOUGHTON LAKE  SNOW      33  32  96 N3        29.44S VSB 1/2
MANISTEE       CLOUDY    41  37  86 N13       29.48S
OSCODA         MIX PCPN  38  37  94 N7G16     29.41S WCI  33
PELLSTON       CLOUDY    39  35  86 N9        29.50S WCI  33
ROGERS CITY    CLOUDY    39  34  82 NE7       29.47S WCI  34
TRAVERSE CITY  CLOUDY    40  35  83 N12       29.48S WCI  33
$$
MIZ007>008-015-182000-
EASTERN UPPER MICHIGAN

CITY           SKY/WX    TMP DP  RH WIND       PRES   REMARKS
KINROSS        CLOUDY    37  34  89 N6        29.52R WCI  32
MACKINAC ISLAN CLOUDY    39  34  84 N12G17    29.50S WCI  31
NEWBERRY       CLOUDY    36  35  96 N7        29.54R WCI  30
S. S. MARIE    CLOUDY    38  32  79 N3        29.52R
MUNISING         N/A     40  35  83 N16       29.58R WCI  31
$$
MIZ004>006-011>014-085-182000-
CENTRAL UPPER MICHIGAN

CITY           SKY/WX    TMP DP  RH WIND       PRES   REMARKS
MANISTIQUE     CLOUDY    38  33  81 N10       29.53F WCI  31
ESCANABA       CLOUDY    40  33  76 N14G20    29.57S WCI  32
MENOMINEE      CLOUDY    39  32  76 N12G21    29.59F WCI  32
SAWYER-GWINN   LGT SNOW  34  32  93 N9        29.61R WCI  26
$$
MIZ001>003-009>011-084-182000-
WESTERN UPPER MICHIGAN

CITY           SKY/WX    TMP DP  RH WIND       PRES   REMARKS
IRON MOUNTAIN  CLOUDY    35  28  75 NW12      29.60F WCI  27
HOUGHTON       CLOUDY    31  26  82 NW13      29.66R WCI  21
COPPER HARBOR    N/A     34  29  82 N21       29.65R WCI  22
IRONWOOD       CLOUDY   N/A N/A N/A NW10      29.71R
$$

ABBREVIATIONS USED IN REMARKS
   TC - TEMPERATURE IN CELSIUS
  WCI - WIND CHILL INDEX
   HX - HEAT INDEX
  VSB - VISIBILITY




USA.gov is the U.S. government's official web portal to all federal, state and local government web resources and services.